| time (UTC) | temp F | wind direction | speed MPH | gust MPH | rain 1hr in | rain 24hr in | rain mn in | humidity % | barometer mb |
| 20260902171553 | 95 | 163 | 3.0 | 10.0 | 0.00 | 0.00 | 0.00 | 46 | 1015.8 |
| 20260902171026 | 95 | 198 | 3.0 | 12.0 | 0.00 | 0.00 | 0.00 | 46 | 1015.7 |
| 20260902170526 | 95 | 198 | 3.0 | 13.0 | 0.00 | 0.00 | 0.00 | 47 | 1015.8 |
| 20260902170041 | 94 | 171 | 1.0 | 17.0 | 0.00 | 0.00 | 0.00 | 49 | 1015.9 |
| 20260902165525 | 94 | 144 | 5.0 | 17.0 | 0.00 | 0.00 | 0.00 | 48 | 1016.0 |
| 20260902165025 | 94 | 157 | 4.0 | 11.0 | 0.00 | 0.00 | 0.00 | 48 | 1015.9 |
| 20260902164543 | 94 | 150 | 1.0 | 12.0 | 0.00 | 0.00 | 0.00 | 49 | 1015.9 |
| 20260902164023 | 93 | 142 | 4.0 | 12.0 | 0.00 | 0.00 | 0.00 | 50 | 1016.0 |
| 20260902163523 | 93 | 175 | 3.0 | 11.0 | 0.00 | 0.00 | 0.00 | 50 | 1016.0 |
| 20260902163056 | 93 | 164 | 2.0 | 10.0 | 0.00 | 0.00 | 0.00 | 50 | 1016.1 |
| 20260902162524 | 93 | 279 | 3.0 | 10.0 | 0.00 | 0.00 | 0.00 | 51 | 1016.0 |
| 20260902162024 | 92 | 111 | 3.0 | 9.0 | 0.00 | 0.00 | 0.00 | 51 | 1016.1 |
| 20260902161545 | 92 | 317 | 2.0 | 10.0 | 0.00 | 0.00 | 0.00 | 52 | 1016.0 |
| 20260902161023 | 92 | 153 | 2.0 | 10.0 | 0.00 | 0.00 | 0.00 | 52 | 1016.1 |
| 20260902160525 | 91 | 197 | 2.0 | 10.0 | 0.00 | 0.00 | 0.00 | 53 | 1016.1 |
| 20260902160046 | 91 | 149 | 4.0 | 10.0 | 0.00 | 0.00 | 0.00 | 54 | 1016.1 |
| 20260902155525 | 90 | 187 | 4.0 | 12.0 | 0.00 | 0.00 | 0.00 | 54 | 1016.1 |
| 20260902155023 | 90 | 329 | 4.0 | 14.0 | 0.00 | 0.00 | 0.00 | 56 | 1016.1 |
| 20260902154545 | 89 | 160 | 4.0 | 14.0 | 0.00 | 0.00 | 0.00 | 55 | 1016.1 |
| 20260902154024 | 89 | 0 | 1.0 | 12.0 | 0.00 | 0.00 | 0.00 | 56 | 1016.1 |
| 20260902153525 | 88 | 0 | 2.0 | 11.0 | 0.00 | 0.00 | 0.00 | 58 | 1016.2 |
| 20260902153051 | 88 | 180 | 4.0 | 12.0 | 0.00 | 0.00 | 0.00 | 58 | 1016.2 |
| 20260902152526 | 88 | 155 | 1.0 | 13.0 | 0.00 | 0.00 | 0.00 | 59 | 1016.1 |
| 20260902152025 | 87 | 150 | 4.0 | 13.0 | 0.00 | 0.00 | 0.00 | 59 | 1016.1 |
| 20260902151542 | 86 | 148 | 4.0 | 12.0 | 0.00 | 0.00 | 0.00 | 60 | 1016.1 |
| 20260902151024 | 86 | 250 | 3.0 | 12.0 | 0.00 | 0.00 | 0.00 | 60 | 1016.1 |
| 20260902150526 | 86 | 165 | 3.0 | 12.0 | 0.00 | 0.00 | 0.00 | 61 | 1016.1 |
| 20260902150047 | 85 | 0 | 2.0 | 12.0 | 0.00 | 0.00 | 0.00 | 62 | 1016.1 |
| 20260902145524 | 85 | 154 | 4.0 | 11.0 | 0.00 | 0.00 | 0.00 | 62 | 1016.1 |
| 20260902145026 | 84 | 194 | 3.0 | 15.0 | 0.00 | 0.00 | 0.00 | 63 | 1016.1 |
| 20260902144545 | 84 | 167 | 2.0 | 15.0 | 0.00 | 0.00 | 0.00 | 63 | 1016.0 |
| 20260902144024 | 83 | 162 | 1.0 | 11.0 | 0.00 | 0.00 | 0.00 | 64 | 1016.1 |
| 20260902143525 | 83 | 165 | 3.0 | 14.0 | 0.00 | 0.00 | 0.00 | 64 | 1016.1 |
| 20260902143044 | 83 | 165 | 3.0 | 14.0 | 0.00 | 0.00 | 0.00 | 63 | 1016.2 |
| 20260902142524 | 84 | 0 | 1.0 | 13.0 | 0.00 | 0.00 | 0.00 | 63 | 1016.3 |
| 20260902142024 | 83 | 166 | 3.0 | 9.0 | 0.00 | 0.00 | 0.00 | 63 | 1016.3 |
| 20260902141539 | 83 | 195 | 2.0 | 9.0 | 0.00 | 0.00 | 0.00 | 63 | 1016.3 |
| 20260902141027 | 82 | 138 | 1.0 | 11.0 | 0.00 | 0.00 | 0.00 | 64 | 1016.3 |
| 20260902140523 | 82 | 247 | 2.0 | 12.0 | 0.00 | 0.00 | 0.00 | 65 | 1016.2 |
| 20260902140044 | 81 | 175 | 2.0 | 12.0 | 0.00 | 0.00 | 0.00 | 66 | 1016.3 |
| 20260902135524 | 81 | 188 | 3.0 | 11.0 | 0.00 | 0.00 | 0.00 | 66 | 1016.3 |
| 20260902135025 | 80 | 155 | 3.0 | 10.0 | 0.00 | 0.00 | 0.00 | 67 | 1016.2 |
| 20260902134552 | 80 | 180 | 1.0 | 9.0 | 0.00 | 0.00 | 0.00 | 68 | 1016.2 |
| 20260902134025 | 79 | 182 | 2.0 | 9.0 | 0.00 | 0.00 | 0.00 | 68 | 1016.3 |
| 20260902133524 | 79 | 150 | 2.0 | 7.0 | 0.00 | 0.00 | 0.00 | 69 | 1016.3 |
| 20260902133047 | 78 | 166 | 1.0 | 7.0 | 0.00 | 0.00 | 0.00 | 69 | 1016.3 |
| 20260902132525 | 78 | 168 | 2.0 | 7.0 | 0.00 | 0.00 | 0.00 | 70 | 1016.3 |
| 20260902132027 | 78 | 152 | 3.0 | 6.0 | 0.00 | 0.00 | 0.00 | 69 | 1016.2 |
| 20260902131545 | 78 | 190 | 2.0 | 8.0 | 0.00 | 0.00 | 0.00 | 70 | 1016.2 |
| 20260902131025 | 77 | 169 | 2.0 | 8.0 | 0.00 | 0.00 | 0.00 | 70 | 1016.1 |
| 20260902130526 | 77 | 147 | 1.0 | 8.0 | 0.00 | 0.00 | 0.00 | 70 | 1016.1 |
| 20260902130043 | 77 | 159 | 3.0 | 8.0 | 0.00 | 0.00 | 0.00 | 71 | 1016.1 |
| 20260902125529 | 76 | 169 | 1.0 | 5.0 | 0.00 | 0.00 | 0.00 | 72 | 1016.0 |
| 20260902125025 | 76 | 163 | 1.0 | 7.0 | 0.00 | 0.00 | 0.00 | 72 | 1015.9 |
| 20260902124548 | 76 | 132 | 1.0 | 7.0 | 0.00 | 0.00 | 0.00 | 73 | 1015.9 |
| 20260902124022 | 76 | 0 | 1.0 | 5.0 | 0.00 | 0.00 | 0.00 | 73 | 1015.8 |
| 20260902123524 | 75 | 178 | 0.0 | 6.0 | 0.00 | 0.00 | 0.00 | 73 | 1015.8 |
| 20260902123053 | 75 | 184 | 2.0 | 6.0 | 0.00 | 0.00 | 0.00 | 73 | 1015.8 |
| 20260902122527 | 75 | 184 | 1.0 | 6.0 | 0.00 | 0.00 | 0.00 | 73 | 1015.7 |
| 20260902122026 | 75 | 0 | 1.0 | 8.0 | 0.00 | 0.00 | 0.00 | 73 | 1015.7 |
| 20260902121544 | 75 | 0 | 0.0 | 8.0 | 0.00 | 0.00 | 0.00 | 73 | 1015.7 |
| 20260902121025 | 75 | 157 | 0.0 | 4.0 | 0.00 | 0.00 | 0.00 | 73 | 1015.7 |
| 20260902120526 | 75 | 180 | 0.0 | 4.0 | 0.00 | 0.00 | 0.00 | 73 | 1015.5 |
| 20260902120053 | 75 | 0 | 1.0 | 5.0 | 0.00 | 0.00 | 0.00 | 72 | 1015.6 |
| 20260902115524 | 75 | 0 | 1.0 | 5.0 | 0.00 | 0.00 | 0.00 | 72 | 1015.6 |
| 20260902115024 | 75 | 160 | 2.0 | 5.0 | 0.00 | 0.00 | 0.00 | 71 | 1015.5 |
| 20260902114546 | 76 | 0 | 0.0 | 5.0 | 0.00 | 0.00 | 0.00 | 71 | 1015.5 |
| 20260902114023 | 76 | 0 | 1.0 | 5.0 | 0.00 | 0.00 | 0.00 | 71 | 1015.4 |
| 20260902113524 | 76 | 148 | 1.0 | 6.0 | 0.00 | 0.00 | 0.00 | 70 | 1015.4 |
| 20260902113044 | 76 | 161 | 2.0 | 7.0 | 0.00 | 0.00 | 0.00 | 70 | 1015.5 |
| 20260902112527 | 76 | 169 | 3.0 | 7.0 | 0.00 | 0.00 | 0.00 | 70 | 1015.4 |
| 20260902112024 | 76 | 0 | 2.0 | 5.0 | 0.00 | 0.00 | 0.00 | 70 | 1015.4 |
| 20260902111540 | 76 | 185 | 1.0 | 5.0 | 0.00 | 0.00 | 0.00 | 70 | 1015.4 |
| 20260902111026 | 76 | 161 | 0.0 | 6.0 | 0.00 | 0.00 | 0.00 | 69 | 1015.4 |
| 20260902110527 | 76 | 160 | 1.0 | 6.0 | 0.00 | 0.00 | 0.00 | 69 | 1015.3 |
| 20260902110047 | 76 | 0 | 2.0 | 6.0 | 0.00 | 0.00 | 0.00 | 69 | 1015.3 |
| 20260902105525 | 76 | 169 | 1.0 | 5.0 | 0.00 | 0.00 | 0.00 | 69 | 1015.3 |
| 20260902105023 | 77 | 0 | 2.0 | 9.0 | 0.00 | 0.00 | 0.00 | 69 | 1015.3 |
| 20260902104542 | 77 | 0 | 2.0 | 9.0 | 0.00 | 0.00 | 0.00 | 68 | 1015.3 |
| 20260902104025 | 77 | 0 | 2.0 | 6.0 | 0.00 | 0.00 | 0.00 | 67 | 1015.2 |
| 20260902103525 | 77 | 175 | 1.0 | 6.0 | 0.00 | 0.00 | 0.00 | 67 | 1015.3 |
| 20260902103040 | 77 | 160 | 1.0 | 4.0 | 0.00 | 0.00 | 0.00 | 67 | 1015.2 |
| 20260902102530 | 77 | 0 | 0.0 | 3.0 | 0.00 | 0.00 | 0.00 | 66 | 1015.2 |
| 20260902102027 | 78 | 0 | 1.0 | 5.0 | 0.00 | 0.00 | 0.00 | 66 | 1015.1 |
| 20260902101547 | 78 | 0 | 0.0 | 7.0 | 0.00 | 0.00 | 0.00 | 65 | 1015.3 |
| 20260902101026 | 78 | 0 | 1.0 | 8.0 | 0.00 | 0.00 | 0.00 | 65 | 1015.1 |
| 20260902100526 | 78 | 168 | 2.0 | 8.0 | 0.00 | 0.00 | 0.00 | 65 | 1015.1 |
| 20260902100047 | 78 | 171 | 2.0 | 8.0 | 0.00 | 0.00 | 0.00 | 65 | 1015.0 |
| 20260902095526 | 78 | 179 | 1.0 | 7.0 | 0.00 | 0.00 | 0.00 | 66 | 1015.1 |
| 20260902095023 | 78 | 180 | 0.0 | 7.0 | 0.00 | 0.00 | 0.00 | 66 | 1015.1 |
| 20260902094545 | 78 | 165 | 1.0 | 4.0 | 0.00 | 0.00 | 0.00 | 66 | 1015.0 |
| 20260902094024 | 78 | 0 | 0.0 | 2.0 | 0.00 | 0.00 | 0.00 | 65 | 1014.9 |
| 20260902093524 | 78 | 0 | 0.0 | 4.0 | 0.00 | 0.00 | 0.00 | 65 | 1015.0 |
| 20260902093057 | 78 | 0 | 1.0 | 5.0 | 0.00 | 0.00 | 0.00 | 64 | 1014.9 |
| 20260902092524 | 79 | 166 | 1.0 | 8.0 | 0.00 | 0.00 | 0.00 | 63 | 1015.0 |
| 20260902092027 | 79 | 165 | 1.0 | 8.0 | 0.00 | 0.00 | 0.00 | 62 | 1014.9 |
| 20260902091546 | 80 | 148 | 1.0 | 5.0 | 0.00 | 0.00 | 0.00 | 62 | 1015.0 |
| 20260902091023 | 80 | 148 | 1.0 | 4.0 | 0.00 | 0.00 | 0.00 | 62 | 1014.8 |
| 20260902090531 | 80 | 245 | 0.0 | 5.0 | 0.00 | 0.00 | 0.00 | 60 | 1014.5 |
| 20260902090045 | 80 | 246 | 0.0 | 5.0 | 0.00 | 0.00 | 0.00 | 60 | 1014.5 |
| 20260902085525 | 81 | 156 | 0.0 | 7.0 | 0.00 | 0.00 | 0.00 | 59 | 1014.6 |
| 20260902085025 | 81 | 170 | 0.0 | 7.0 | 0.00 | 0.00 | 0.00 | 59 | 1014.5 |
| 20260902084546 | 81 | 0 | 1.0 | 7.0 | 0.00 | 0.00 | 0.00 | 58 | 1014.4 |
| 20260902084024 | 81 | 0 | 2.0 | 9.0 | 0.00 | 0.00 | 0.00 | 58 | 1014.5 |
| 20260902083526 | 82 | 0 | 3.0 | 9.0 | 0.00 | 0.00 | 0.00 | 58 | 1014.5 |
| 20260902083041 | 82 | 161 | 3.0 | 9.0 | 0.00 | 0.00 | 0.00 | 58 | 1014.3 |
| 20260902082524 | 81 | 165 | 1.0 | 6.0 | 0.00 | 0.00 | 0.00 | 58 | 1014.2 |
| 20260902082023 | 82 | 149 | 1.0 | 6.0 | 0.00 | 0.00 | 0.00 | 58 | 1014.2 |
| 20260902081547 | 82 | 0 | 0.0 | 5.0 | 0.00 | 0.00 | 0.00 | 57 | 1014.3 |
| 20260902081023 | 82 | 179 | 0.0 | 6.0 | 0.00 | 0.00 | 0.00 | 57 | 1014.2 |
| 20260902080523 | 82 | 0 | 2.0 | 6.0 | 0.00 | 0.00 | 0.00 | 57 | 1014.2 |
| 20260902080046 | 82 | 0 | 1.0 | 4.0 | 0.00 | 0.00 | 0.00 | 57 | 1014.2 |
| 20260902075525 | 82 | 274 | 0.0 | 4.0 | 0.00 | 0.00 | 0.00 | 56 | 1014.3 |
| 20260902075025 | 82 | 0 | 0.0 | 10.0 | 0.00 | 0.00 | 0.00 | 56 | 1014.2 |
| 20260902074554 | 83 | 188 | 0.0 | 10.0 | 0.00 | 0.00 | 0.00 | 56 | 1014.2 |
| 20260902074024 | 83 | 171 | 1.0 | 8.0 | 0.00 | 0.00 | 0.00 | 55 | 1014.1 |
| 20260902073524 | 83 | 272 | 2.0 | 8.0 | 0.00 | 0.00 | 0.00 | 55 | 1014.2 |
| 20260902073040 | 83 | 208 | 1.0 | 11.0 | 0.00 | 0.00 | 0.00 | 55 | 1014.2 |
| 20260902072523 | 83 | 163 | 2.0 | 11.0 | 0.00 | 0.00 | 0.00 | 55 | 1014.2 |
| 20260902072024 | 83 | 0 | 3.0 | 8.0 | 0.00 | 0.00 | 0.00 | 55 | 1014.3 |
| 20260902071543 | 83 | 210 | 1.0 | 14.0 | 0.00 | 0.00 | 0.00 | 55 | 1014.2 |
| 20260902071024 | 83 | 186 | 2.0 | 14.0 | 0.00 | 0.00 | 0.00 | 55 | 1014.3 |
| 20260902070525 | 83 | 181 | 3.0 | 12.0 | 0.00 | 0.00 | 0.00 | 55 | 1014.4 |
| 20260902070047 | 82 | 0 | 2.0 | 9.0 | 0.00 | 0.00 | 0.00 | 56 | 1014.3 |
| 20260902065525 | 81 | 205 | 1.0 | 9.0 | 0.00 | 0.00 | 0.00 | 58 | 1014.3 |
| 20260902065026 | 81 | 211 | 1.0 | 10.0 | 0.00 | 0.00 | 0.00 | 59 | 1014.3 |
| 20260902064545 | 80 | 0 | 1.0 | 10.0 | 0.00 | 0.00 | 0.00 | 60 | 1014.4 |
| 20260902064023 | 80 | 186 | 1.0 | 6.0 | 0.00 | 0.00 | 0.00 | 61 | 1014.5 |
| 20260902063524 | 80 | 0 | 0.0 | 2.0 | 0.00 | 0.00 | 0.00 | 61 | 1014.5 |
| 20260902063046 | 80 | 0 | 0.0 | 2.0 | 0.00 | 0.00 | 0.00 | 60 | 1014.5 |
| 20260902062525 | 80 | 0 | 0.0 | 3.0 | 0.00 | 0.00 | 0.00 | 60 | 1014.4 |
| 20260902062023 | 80 | 0 | 0.0 | 3.0 | 0.00 | 0.00 | 0.00 | 59 | 1014.5 |
| 20260902061558 | 80 | 0 | 0.0 | 1.0 | 0.00 | 0.00 | 0.00 | 59 | 1014.4 |
| 20260902061025 | 81 | 0 | 0.0 | 1.0 | 0.00 | 0.00 | 0.00 | 59 | 1014.3 |
| 20260902060523 | 81 | 0 | 0.0 | 2.0 | 0.00 | 0.00 | 0.00 | 59 | 1014.4 |
| 20260902060055 | 81 | 0 | 0.0 | 2.0 | 0.00 | 0.00 | 0.00 | 58 | 1014.5 |
| 20260902055524 | 81 | 0 | 0.0 | 4.0 | 0.00 | 0.00 | 0.00 | 58 | 1014.4 |
| 20260902055025 | 81 | 0 | 0.0 | 4.0 | 0.00 | 0.00 | 0.00 | 58 | 1014.5 |
| 20260902054608 | 82 | 0 | 0.0 | 4.0 | 0.00 | 0.00 | 0.00 | 57 | 1014.5 |
| 20260902054024 | 82 | 0 | 0.0 | 4.0 | 0.00 | 0.00 | 0.00 | 57 | 1014.6 |
| 20260902053524 | 82 | 180 | 0.0 | 3.0 | 0.00 | 0.00 | 0.00 | 56 | 1014.4 |
| 20260902053100 | 83 | 0 | 0.0 | 2.0 | 0.00 | 0.00 | 0.00 | 55 | 1014.5 |
| 20260902052521 | 83 | 0 | 0.0 | 3.0 | 0.00 | 0.00 | 0.00 | 55 | 1014.5 |
| 20260902052024 | 83 | 0 | 0.0 | 4.0 | 0.00 | 0.00 | 0.00 | 54 | 1014.4 |
| 20260902051542 | 83 | 225 | 0.0 | 5.0 | 0.00 | 0.00 | 0.00 | 54 | 1014.4 |
| 20260902051028 | 83 | 168 | 0.0 | 5.0 | 0.00 | 0.00 | 0.00 | 54 | 1014.5 |
| 20260902050524 | 83 | 0 | 1.0 | 7.0 | 0.00 | 0.00 | 0.00 | 54 | 1014.5 |
| 20260902050042 | 84 | 173 | 1.0 | 7.0 | 0.00 | 0.00 | 0.00 | 54 | 1014.5 |
| 20260902045523 | 84 | 186 | 2.0 | 7.0 | 0.00 | 0.00 | 0.00 | 53 | 1014.5 |
| 20260902045024 | 84 | 217 | 1.0 | 6.0 | 0.00 | 0.00 | 0.00 | 53 | 1014.5 |
| 20260902044552 | 84 | 0 | 0.0 | 7.0 | 0.00 | 0.00 | 0.00 | 53 | 1014.5 |
| 20260902044024 | 84 | 211 | 1.0 | 8.0 | 0.00 | 0.00 | 0.00 | 53 | 1014.5 |
| 20260902043525 | 84 | 162 | 2.0 | 8.0 | 0.00 | 0.00 | 0.00 | 53 | 1014.5 |
| 20260902043046 | 84 | 165 | 2.0 | 10.0 | 0.00 | 0.00 | 0.00 | 53 | 1014.4 |
| 20260902042525 | 84 | 208 | 2.0 | 10.0 | 0.00 | 0.00 | 0.00 | 53 | 1014.4 |
| 20260902042024 | 84 | 0 | 2.0 | 6.0 | 0.00 | 0.00 | 0.00 | 53 | 1014.5 |
| 20260902041541 | 84 | 165 | 1.0 | 7.0 | 0.00 | 0.00 | 0.00 | 53 | 1014.5 |
| 20260902041025 | 84 | 0 | 1.0 | 7.0 | 0.00 | 0.00 | 0.00 | 53 | 1014.5 |
| 20260902040524 | 84 | 176 | 0.0 | 7.0 | 0.00 | 0.00 | 0.00 | 53 | 1014.5 |
| 20260902040048 | 84 | 173 | 0.0 | 5.0 | 0.00 | 0.00 | 0.00 | 53 | 1014.6 |
| 20260902035523 | 84 | 0 | 2.0 | 6.0 | 0.00 | 0.00 | 0.00 | 53 | 1014.7 |
| 20260902035025 | 85 | 171 | 1.0 | 8.0 | 0.00 | 0.00 | 0.00 | 52 | 1014.7 |
| 20260902034548 | 85 | 153 | 3.0 | 8.0 | 0.00 | 0.00 | 0.00 | 52 | 1014.6 |
| 20260902034025 | 85 | 156 | 3.0 | 8.0 | 0.00 | 0.00 | 0.00 | 51 | 1014.6 |
| 20260902033523 | 85 | 181 | 2.0 | 9.0 | 0.00 | 0.00 | 0.00 | 51 | 1014.6 |
| 20260902033047 | 85 | 170 | 3.0 | 10.0 | 0.00 | 0.00 | 0.00 | 51 | 1014.6 |
| 20260902032524 | 85 | 169 | 2.0 | 10.0 | 0.00 | 0.00 | 0.00 | 51 | 1014.6 |
| 20260902032023 | 85 | 162 | 2.0 | 9.0 | 0.00 | 0.00 | 0.00 | 51 | 1014.5 |
| 20260902031547 | 85 | 173 | 3.0 | 8.0 | 0.00 | 0.00 | 0.00 | 52 | 1014.4 |
| 20260902031025 | 85 | 157 | 1.0 | 6.0 | 0.00 | 0.00 | 0.00 | 52 | 1014.5 |
| 20260902030525 | 85 | 0 | 0.0 | 6.0 | 0.00 | 0.00 | 0.00 | 52 | 1014.4 |
| 20260902030042 | 85 | 160 | 1.0 | 4.0 | 0.00 | 0.00 | 0.00 | 52 | 1014.3 |
| 20260902025525 | 85 | 182 | 1.0 | 4.0 | 0.00 | 0.00 | 0.00 | 52 | 1014.1 |
| 20260902025023 | 85 | 166 | 0.0 | 5.0 | 0.00 | 0.00 | 0.00 | 52 | 1014.1 |
| 20260902024548 | 86 | 0 | 1.0 | 5.0 | 0.00 | 0.00 | 0.00 | 52 | 1014.0 |
| 20260902024023 | 86 | 166 | 0.0 | 5.0 | 0.00 | 0.00 | 0.00 | 52 | 1014.0 |
| 20260902023523 | 86 | 156 | 1.0 | 5.0 | 0.00 | 0.00 | 0.00 | 51 | 1014.1 |
| 20260902023055 | 86 | 132 | 0.0 | 4.0 | 0.00 | 0.00 | 0.00 | 51 | 1014.1 |
| 20260902022525 | 86 | 178 | 0.0 | 3.0 | 0.00 | 0.00 | 0.00 | 51 | 1014.1 |
| 20260902022025 | 86 | 0 | 0.0 | 3.0 | 0.00 | 0.00 | 0.00 | 51 | 1014.0 |
| 20260902021545 | 87 | 172 | 0.0 | 3.0 | 0.00 | 0.00 | 0.00 | 50 | 1014.1 |
| 20260902021024 | 87 | 153 | 0.0 | 3.0 | 0.00 | 0.00 | 0.00 | 50 | 1014.0 |
| 20260902020524 | 87 | 0 | 0.0 | 5.0 | 0.00 | 0.00 | 0.00 | 49 | 1014.0 |
| 20260902020042 | 87 | 0 | 0.0 | 5.0 | 0.00 | 0.00 | 0.00 | 49 | 1014.0 |
| 20260902015526 | 87 | 0 | 0.0 | 5.0 | 0.00 | 0.00 | 0.00 | 49 | 1013.9 |
| 20260902015024 | 88 | 0 | 0.0 | 4.0 | 0.00 | 0.00 | 0.00 | 48 | 1013.9 |
| 20260902014540 | 88 | 169 | 0.0 | 4.0 | 0.00 | 0.00 | 0.00 | 48 | 1013.8 |
| 20260902014027 | 88 | 169 | 0.0 | 4.0 | 0.00 | 0.00 | 0.00 | 48 | 1013.7 |
| 20260902013524 | 88 | 172 | 0.0 | 4.0 | 0.00 | 0.00 | 0.00 | 48 | 1013.7 |
| 20260902013053 | 88 | 0 | 0.0 | 4.0 | 0.00 | 0.00 | 0.00 | 47 | 1013.7 |
| 20260902012524 | 89 | 0 | 0.0 | 2.0 | 0.00 | 0.00 | 0.00 | 47 | 1013.6 |
| 20260902012024 | 89 | 0 | 0.0 | 3.0 | 0.00 | 0.00 | 0.00 | 47 | 1013.6 |
| 20260902011547 | 89 | 0 | 0.0 | 3.0 | 0.00 | 0.00 | 0.00 | 46 | 1013.7 |
| 20260902011024 | 90 | 0 | 0.0 | 3.0 | 0.00 | 0.00 | 0.00 | 46 | 1013.7 |
| 20260902010525 | 90 | 165 | 0.0 | 3.0 | 0.00 | 0.00 | 0.00 | 45 | 1013.6 |
| 20260902010045 | 90 | 0 | 0.0 | 3.0 | 0.00 | 0.00 | 0.00 | 45 | 1013.6 |
| 20260902005525 | 91 | 168 | 0.0 | 1.0 | 0.00 | 0.00 | 0.00 | 45 | 1013.6 |
| 20260902005024 | 91 | 0 | 0.0 | 2.0 | 0.00 | 0.00 | 0.00 | 45 | 1013.5 |
| 20260902004546 | 91 | 0 | 0.0 | 3.0 | 0.00 | 0.00 | 0.00 | 44 | 1013.7 |
| 20260902004024 | 92 | 168 | 0.0 | 4.0 | 0.00 | 0.00 | 0.00 | 44 | 1013.6 |
| 20260902003524 | 92 | 0 | 0.0 | 4.0 | 0.00 | 0.00 | 0.00 | 43 | 1013.6 |
| 20260902003043 | 93 | 0 | 0.0 | 5.0 | 0.00 | 0.00 | 0.00 | 43 | 1013.7 |
| 20260902002522 | 93 | 0 | 0.0 | 5.0 | 0.00 | 0.00 | 0.00 | 42 | 1013.6 |
| 20260902002025 | 94 | 187 | 0.0 | 5.0 | 0.00 | 0.00 | 0.00 | 41 | 1013.8 |
| 20260902001602 | 94 | 0 | 1.0 | 4.0 | 0.00 | 0.00 | 0.00 | 40 | 1013.7 |
| 20260902001023 | 94 | 176 | 0.0 | 5.0 | 0.00 | 0.00 | 0.00 | 40 | 1013.8 |
| 20260902000523 | 95 | 148 | 1.0 | 5.0 | 0.00 | 0.00 | 0.00 | 40 | 1013.7 |
| 20260902000045 | 95 | 0 | 1.0 | 5.0 | 0.00 | 0.00 | 0.00 | 39 | 1013.7 |
| 20260901235525 | 95 | 165 | 1.0 | 8.0 | 0.00 | 0.00 | 0.00 | 38 | 1013.8 |
| 20260901235027 | 96 | 158 | 0.0 | 8.0 | 0.00 | 0.00 | 0.00 | 38 | 1013.8 |
| 20260901234541 | 96 | 158 | 1.0 | 8.0 | 0.00 | 0.00 | 0.00 | 38 | 1013.8 |
| 20260901234025 | 96 | 174 | 2.0 | 8.0 | 0.00 | 0.00 | 0.00 | 37 | 1013.9 |
| 20260901233525 | 96 | 178 | 2.0 | 5.0 | 0.00 | 0.00 | 0.00 | 37 | 1013.8 |
| 20260901233055 | 96 | 0 | 1.0 | 6.0 | 0.00 | 0.00 | 0.00 | 37 | 1013.8 |
| 20260901232527 | 96 | 155 | 1.0 | 7.0 | 0.00 | 0.00 | 0.00 | 36 | 1013.8 |
| 20260901232027 | 97 | 183 | 4.0 | 7.0 | 0.00 | 0.00 | 0.00 | 35 | 1013.9 |
| 20260901231548 | 97 | 148 | 2.0 | 8.0 | 0.00 | 0.00 | 0.00 | 35 | 1013.8 |
| 20260901231026 | 97 | 178 | 2.0 | 8.0 | 0.00 | 0.00 | 0.00 | 35 | 1013.9 |
| 20260901230526 | 98 | 169 | 2.0 | 8.0 | 0.00 | 0.00 | 0.00 | 34 | 1013.9 |
| 20260901230046 | 98 | 187 | 1.0 | 7.0 | 0.00 | 0.00 | 0.00 | 34 | 1013.8 |
| 20260901225524 | 98 | 143 | 2.0 | 7.0 | 0.00 | 0.00 | 0.00 | 34 | 1013.9 |
| 20260901225024 | 98 | 173 | 3.0 | 9.0 | 0.00 | 0.00 | 0.00 | 33 | 1013.9 |
| 20260901224549 | 98 | 156 | 2.0 | 12.0 | 0.00 | 0.00 | 0.00 | 33 | 1013.9 |
| 20260901224028 | 98 | 206 | 2.0 | 15.0 | 0.00 | 0.00 | 0.00 | 33 | 1013.9 |
| 20260901223527 | 98 | 277 | 5.0 | 15.0 | 0.00 | 0.00 | 0.00 | 33 | 1013.9 |
| 20260901223051 | 98 | 88 | 3.0 | 7.0 | 0.00 | 0.00 | 0.00 | 33 | 1013.8 |
| 20260901222525 | 98 | 163 | 2.0 | 14.0 | 0.00 | 0.00 | 0.00 | 34 | 1013.9 |
| 20260901222023 | 98 | 125 | 1.0 | 14.0 | 0.00 | 0.00 | 0.00 | 34 | 1013.9 |
| 20260901221558 | 99 | 167 | 2.0 | 10.0 | 0.00 | 0.00 | 0.00 | 34 | 1013.8 |
| 20260901221024 | 98 | 0 | 3.0 | 11.0 | 0.00 | 0.00 | 0.00 | 34 | 1013.8 |
| 20260901220528 | 98 | 250 | 2.0 | 13.0 | 0.00 | 0.00 | 0.00 | 34 | 1013.9 |
| 20260901220052 | 98 | 180 | 4.0 | 13.0 | 0.00 | 0.00 | 0.00 | 34 | 1013.8 |
| 20260901215527 | 99 | 169 | 3.0 | 16.0 | 0.00 | 0.00 | 0.00 | 33 | 1013.8 |
| 20260901215026 | 98 | 157 | 2.0 | 16.0 | 0.00 | 0.00 | 0.00 | 34 | 1013.9 |
| 20260901214551 | 98 | 155 | 3.0 | 15.0 | 0.00 | 0.00 | 0.00 | 34 | 1013.9 |
| 20260901214025 | 98 | 159 | 3.0 | 12.0 | 0.00 | 0.00 | 0.00 | 34 | 1013.9 |
| 20260901213525 | 98 | 158 | 2.0 | 18.0 | 0.00 | 0.00 | 0.00 | 34 | 1013.8 |
| 20260901213048 | 99 | 314 | 2.0 | 18.0 | 0.00 | 0.00 | 0.00 | 33 | 1014.0 |
| 20260901212526 | 99 | 175 | 5.0 | 18.0 | 0.00 | 0.00 | 0.00 | 32 | 1014.0 |
| 20260901212025 | 99 | 242 | 3.0 | 12.0 | 0.00 | 0.00 | 0.00 | 33 | 1014.0 |
| 20260901211547 | 99 | 226 | 4.0 | 11.0 | 0.00 | 0.00 | 0.00 | 32 | 1014.0 |
| 20260901211026 | 99 | 173 | 5.0 | 11.0 | 0.00 | 0.00 | 0.00 | 32 | 1014.1 |
| 20260901210527 | 100 | 196 | 3.0 | 10.0 | 0.00 | 0.00 | 0.00 | 31 | 1014.1 |
| 20260901210044 | 99 | 0 | 3.0 | 16.0 | 0.00 | 0.00 | 0.00 | 31 | 1014.2 |
| 20260901205527 | 99 | 274 | 4.0 | 16.0 | 0.00 | 0.00 | 0.00 | 31 | 1014.3 |
| 20260901205029 | 99 | 188 | 6.0 | 17.0 | 0.00 | 0.00 | 0.00 | 30 | 1014.3 |
| 20260901204549 | 99 | 51 | 5.0 | 17.0 | 0.00 | 0.00 | 0.00 | 30 | 1014.5 |
| 20260901204025 | 99 | 15 | 3.0 | 11.0 | 0.00 | 0.00 | 0.00 | 31 | 1014.5 |
| 20260901203526 | 100 | 30 | 3.0 | 12.0 | 0.00 | 0.00 | 0.00 | 32 | 1014.7 |
| 20260901203047 | 100 | 196 | 2.0 | 17.0 | 0.00 | 0.00 | 0.00 | 33 | 1014.8 |
| 20260901202525 | 99 | 173 | 5.0 | 17.0 | 0.00 | 0.00 | 0.00 | 33 | 1014.9 |
| 20260901202026 | 100 | 167 | 5.0 | 13.0 | 0.00 | 0.00 | 0.00 | 31 | 1014.9 |
| 20260901201546 | 99 | 225 | 3.0 | 14.0 | 0.00 | 0.00 | 0.00 | 31 | 1015.0 |
| 20260901201026 | 100 | 163 | 3.0 | 14.0 | 0.00 | 0.00 | 0.00 | 31 | 1015.0 |
| 20260901200524 | 100 | 169 | 2.0 | 13.0 | 0.00 | 0.00 | 0.00 | 30 | 1015.0 |
| 20260901200048 | 100 | 258 | 3.0 | 15.0 | 0.00 | 0.00 | 0.00 | 30 | 1015.0 |
| 20260901195524 | 99 | 202 | 3.0 | 15.0 | 0.00 | 0.00 | 0.00 | 30 | 1015.1 |
| 20260901195024 | 100 | 336 | 4.0 | 15.0 | 0.00 | 0.00 | 0.00 | 31 | 1015.1 |
| 20260901194550 | 100 | 205 | 4.0 | 12.0 | 0.00 | 0.00 | 0.00 | 31 | 1015.2 |
| 20260901194028 | 99 | 301 | 2.0 | 15.0 | 0.00 | 0.00 | 0.00 | 31 | 1015.2 |
| 20260901193524 | 99 | 76 | 5.0 | 15.0 | 0.00 | 0.00 | 0.00 | 31 | 1015.2 |
| 20260901193048 | 99 | 196 | 4.0 | 15.0 | 0.00 | 0.00 | 0.00 | 30 | 1015.3 |
| 20260901192525 | 99 | 105 | 3.0 | 15.0 | 0.00 | 0.00 | 0.00 | 30 | 1015.3 |
| 20260901192023 | 99 | 152 | 4.0 | 15.0 | 0.00 | 0.00 | 0.00 | 33 | 1015.4 |
| 20260901191600 | 99 | 192 | 3.0 | 15.0 | 0.00 | 0.00 | 0.00 | 34 | 1015.4 |
| 20260901191025 | 99 | 92 | 2.0 | 10.0 | 0.00 | 0.00 | 0.00 | 35 | 1015.4 |
| 20260901190528 | 99 | 176 | 3.0 | 10.0 | 0.00 | 0.00 | 0.00 | 35 | 1015.5 |
| 20260901190048 | 99 | 158 | 4.0 | 10.0 | 0.00 | 0.00 | 0.00 | 37 | 1015.6 |
| 20260901185528 | 99 | 293 | 2.0 | 11.0 | 0.00 | 0.00 | 0.00 | 37 | 1015.5 |
| 20260901185027 | 99 | 290 | 2.0 | 11.0 | 0.00 | 0.00 | 0.00 | 37 | 1015.6 |
| 20260901184547 | 99 | 178 | 2.0 | 10.0 | 0.00 | 0.00 | 0.00 | 36 | 1015.6 |
| 20260901184026 | 99 | 308 | 1.0 | 10.0 | 0.00 | 0.00 | 0.00 | 36 | 1015.6 |
| 20260901183527 | 98 | 278 | 4.0 | 13.0 | 0.00 | 0.00 | 0.00 | 36 | 1015.7 |
| 20260901183051 | 98 | 150 | 3.0 | 13.0 | 0.00 | 0.00 | 0.00 | 36 | 1015.8 |
| 20260901182524 | 98 | 165 | 4.0 | 13.0 | 0.00 | 0.00 | 0.00 | 36 | 1015.8 |
| 20260901182027 | 98 | 134 | 3.0 | 10.0 | 0.00 | 0.00 | 0.00 | 38 | 1015.9 |
| 20260901181558 | 97 | 227 | 1.0 | 10.0 | 0.00 | 0.00 | 0.00 | 38 | 1016.0 |
| 20260901181025 | 98 | 259 | 2.0 | 7.0 | 0.00 | 0.00 | 0.00 | 38 | 1016.1 |
| 20260901180524 | 98 | 301 | 2.0 | 10.0 | 0.00 | 0.00 | 0.00 | 39 | 1016.1 |
| 20260901180046 | 97 | 194 | 3.0 | 11.0 | 0.00 | 0.00 | 0.00 | 40 | 1016.2 |
| 20260901175529 | 96 | 221 | 2.0 | 12.0 | 0.00 | 0.00 | 0.00 | 40 | 1016.3 |
| 20260901175027 | 96 | 135 | 2.0 | 12.0 | 0.00 | 0.00 | 0.00 | 40 | 1016.3 |
| 20260901174548 | 97 | 286 | 2.0 | 10.0 | 0.00 | 0.00 | 0.00 | 38 | 1016.4 |
| 20260901174027 | 97 | 0 | 3.0 | 10.0 | 0.00 | 0.00 | 0.00 | 39 | 1016.4 |
| 20260901173528 | 96 | 0 | 2.0 | 9.0 | 0.00 | 0.00 | 0.00 | 40 | 1016.6 |
| 20260901173059 | 96 | 113 | 2.0 | 12.0 | 0.00 | 0.00 | 0.00 | 40 | 1016.6 |
| 20260901172525 | 96 | 275 | 1.0 | 12.0 | 0.00 | 0.00 | 0.00 | 39 | 1016.6 |
| 20260901172030 | 97 | 241 | 1.0 | 8.0 | 0.00 | 0.00 | 0.00 | 41 | 1016.7 |